Weather History for KPDT - February, 2013

Change the Weather History Date:

Saturday, February 16, 2013

  Actual Average Record
Temperature  
Mean Temperature 41 °F 38 °F  
Max Temperature 55 °F 47 °F 66 °F (1902)
Min Temperature 27 °F 30 °F -8 °F (1936)
Degree Days  
Heating Degree Days 24 27  
Month to date heating degree days 397 439  
Since 1 July heating degree days 3419 3597  
Cooling Degree Days 0 0  
Month to date cooling degree days 0 0  
Year to date cooling degree days 0 0  
Moisture  
Dew Point 32 °F    
Average Humidity 77    
Maximum Humidity 100    
Minimum Humidity 54    
Precipitation  
Precipitation T in 0.04 in 0.60 in (1922)
Month to date precipitation T 0.62  
Year to date precipitation 0.98 2.05  
Snow  
Snow 0.00 in 0.10 in 2.00 in (1952)
Month to date snowfall 0.0 2.0  
Year to date snowfall 0.1 5.7  
Since 1 July snowfall 1.9 13.2  
Snow Depth 0.00 in    
Sea Level Pressure  
Sea Level Pressure 30.12 in    
Wind  
Wind Speed 14 mph (SW)    
Max Wind Speed 32 mph    
Max Gust Speed 42 mph    
Visibility 8 miles    
Events Fog    
T = Trace of Precipitation, MM = Missing Value Source: NWS Daily Summary

Daily Weather History Graph

Daily Weather History Graph

Search for Another Location

Airport or City:

Trip Planner

Search our weather history database for the weather conditions in past years. The results will help you decide how hot, cold, wet, or windy it might be!

Date:

Astronomy

Feb. 16, 2013 Rise Set
Actual Time 6:55 AM PST 5:24 PM PST
Civil Twilight 6:24 AM PST 5:54 PM PST
Nautical Twilight 5:50 AM PST 6:29 PM PST
Astronomical Twilight 5:15 AM PST 7:03 PM PST
Moon 9:48 AM PST (2/16) No Moon Set
Length of Visible Light 11h 29m
Length of Day
10h 28m
Waxing Crescent, 40% of the Moon is Illuminated
Feb 16
Waxing Crescent
Feb 17
First Quarter
Feb 25
Full
Mar 4
Last Quarter
Mar 11
New

Hourly Weather History & Observations

Time (PST) Temp. Windchill Dew Point Humidity Pressure Visibility Wind Dir Wind Speed Gust Speed Precip Events Conditions
12:53 AM 34.0 °F 29.8 °F 33.1 °F 96% 30.22 in 10.0 mi East 4.6 mph - N/A   Clear
1:53 AM 32.0 °F 27.5 °F 32.0 °F 100% 30.20 in 8.0 mi SSE 4.6 mph - N/A   Clear
2:53 AM 30.9 °F 25.2 °F 30.0 °F 96% 30.18 in 7.0 mi SE 5.8 mph - N/A   Clear
3:53 AM 32.0 °F - 30.9 °F 96% 30.17 in 4.0 mi Calm Calm - N/A   Clear
4:53 AM 34.0 °F - 33.1 °F 96% 30.17 in 9.0 mi Calm Calm - N/A   Clear
5:53 AM 28.9 °F 22.8 °F 28.9 °F 100% 30.17 in 1.8 mi SE 5.8 mph - N/A   Clear
5:59 AM 28.0 °F 21.7 °F 28.0 °F 100% 30.15 in 4.0 mi SE 5.8 mph - N/A   Clear
6:08 AM 28.0 °F 20.8 °F 28.0 °F 100% 30.15 in 0.8 mi SE 6.9 mph - N/A   Clear
6:53 AM 27.0 °F 19.5 °F 27.0 °F 100% 30.16 in 1.0 mi ESE 6.9 mph - N/A   Clear
6:59 AM 28.0 °F 20.0 °F 28.0 °F 100% 30.14 in 0.5 mi ESE 8.1 mph - N/A Fog Light Freezing Fog
7:14 AM 28.0 °F 20.8 °F 28.0 °F 100% 30.13 in 1.0 mi ESE 6.9 mph - N/A   Clear
7:33 AM 28.9 °F 22.8 °F 28.9 °F 100% 30.13 in 3.0 mi SE 5.8 mph - N/A   Clear
7:53 AM 30.9 °F 27.5 °F 30.9 °F 100% 30.15 in 3.0 mi ESE 3.5 mph - N/A   Clear
8:53 AM 42.1 °F - 37.9 °F 85% 30.14 in 10.0 mi Calm Calm - N/A   Clear
9:53 AM 48.0 °F - 39.0 °F 71% 30.13 in 10.0 mi WNW 10.4 mph - N/A   Clear
10:53 AM 53.1 °F - 37.9 °F 57% 30.11 in 10.0 mi West 12.7 mph - N/A   Clear
11:53 AM 54.0 °F - 37.9 °F 55% 30.10 in 10.0 mi West 16.1 mph - N/A   Overcast
12:53 PM 51.1 °F - 37.9 °F 61% 30.07 in 10.0 mi WNW 17.3 mph - N/A   Overcast
1:53 PM 50.0 °F - 37.9 °F 63% 30.05 in 10.0 mi WNW 26.5 mph - 0.00 in   Overcast
2:53 PM 48.0 °F - 36.0 °F 63% 30.05 in 10.0 mi West 24.2 mph 28.8 mph 0.00 in   Overcast
3:53 PM 48.9 °F - 34.0 °F 56% 30.04 in 10.0 mi West 21.9 mph 29.9 mph N/A   Overcast
4:53 PM 48.9 °F - 32.0 °F 52% 30.05 in 10.0 mi West 23.0 mph 32.2 mph N/A   Scattered Clouds
5:53 PM 44.1 °F 35.7 °F 34.0 °F 68% 30.06 in 10.0 mi West 20.7 mph 27.6 mph N/A   Clear
6:53 PM 42.1 °F 32.1 °F 33.1 °F 70% 30.07 in 10.0 mi West 25.3 mph - N/A   Clear
7:53 PM 41.0 °F 30.0 °F 32.0 °F 70% 30.07 in 10.0 mi West 28.8 mph 34.5 mph N/A   Clear
8:53 PM 39.9 °F 29.7 °F 30.0 °F 68% 30.07 in 10.0 mi West 23.0 mph 29.9 mph N/A   Clear
9:53 PM 39.0 °F 29.0 °F 30.0 °F 70% 30.09 in 10.0 mi WSW 20.7 mph - N/A   Clear
10:53 PM 39.0 °F 28.5 °F 28.9 °F 67% 30.08 in 10.0 mi WSW 23.0 mph 27.6 mph N/A   Clear
11:53 PM 37.9 °F 29.6 °F 28.0 °F 68% 30.09 in 10.0 mi WSW 13.8 mph - N/A   Clear